Location: Ikejouine
(32.5142°N, 5.4699°W)
Time: 16:51:26
(UTC+00:00)

OE (NEXTSAT) - Pass Details

Date: 09 April 2020
Orbit: 432 x 439 km, 46.0° (Epoch: 26 May)

Event Time Altitude Azimuth Distance (km) Brightness Sun altitude
Rises 19:43:12 0° 227° (SW) 2,399 8.5 -12.2°
Reaches altitude 10° 19:45:19 10° 225° (SW) 1,536 7.5 -12.6°
Maximum altitude 19:48:46 69° 142° (SE) 470 4.2 -13.3°
Enters shadow 19:51:33 15° 60° (ENE) 1,273 6.3 -13.8°
